JTM125 YBBN-YMML

Flight info

Callsign JTM125
Flight time N/A
Altitude 35000
Route SANEG2/19L SANEG Q35 DORSU H119 ML DCT
Aircraft B738/M-SDE2FGHIRWY/L

Departure

Time N/A
Airport Brisbane International Airport (YBBN)

Arrival

Time 2026-05-01 09:41
Airport Melbourne Airport (YMML)
Time Latitude Longitude Altitude Speed Heading
2026-05-01 07:23 -30.40680 151.08041 35302 ft 433 kts 211°
2026-05-01 07:24 -30.48513 151.02859 35300 ft 433 kts 211°
2026-05-01 07:24 -30.53788 150.99364 35304 ft 433 kts 211°
2026-05-01 07:25 -30.59042 150.95875 35298 ft 433 kts 211°
2026-05-01 07:25 -30.64274 150.92400 35289 ft 434 kts 211°
2026-05-01 07:26 -30.69547 150.88892 35284 ft 433 kts 211°
2026-05-01 07:26 -30.74754 150.85423 35283 ft 433 kts 211°
2026-05-01 07:27 -30.80004 150.81923 35289 ft 433 kts 211°
2026-05-01 07:27 -30.85205 150.78448 35286 ft 433 kts 211°
2026-05-01 07:28 -30.90445 150.74945 35291 ft 433 kts 211°
2026-05-01 07:28 -30.95681 150.71440 35197 ft 431 kts 211°
2026-05-01 07:29 -31.00950 150.67908 35287 ft 438 kts 211°
2026-05-01 07:29 -31.06111 150.64217 35278 ft 434 kts 217°
2026-05-01 07:30 -31.10826 150.59847 35330 ft 434 kts 221°
2026-05-01 07:30 -31.15314 150.55200 35274 ft 430 kts 223°
2026-05-01 07:31 -31.19767 150.50494 35267 ft 432 kts 223°
2026-05-01 07:32 -31.30912 150.38782 35276 ft 433 kts 223°
2026-05-01 07:33 -31.37651 150.31723 35280 ft 432 kts 223°
2026-05-01 07:33 -31.44355 150.24692 35283 ft 432 kts 223°
2026-05-01 07:34 -31.51082 150.17622 35299 ft 432 kts 223°
2026-05-01 07:35 -31.55564 150.12906 35298 ft 432 kts 223°
2026-05-01 07:35 -31.60010 150.08221 35305 ft 432 kts 223°
2026-05-01 07:36 -31.64503 150.03479 35309 ft 432 kts 223°
2026-05-01 07:36 -31.66754 150.01102 35099 ft 432 kts 223°
2026-05-01 07:36 -31.68973 149.98755 35276 ft 432 kts 223°
2026-05-01 07:36 -31.71235 149.96362 35548 ft 438 kts 223°
2026-05-01 07:37 -31.75727 149.91608 35273 ft 429 kts 224°
2026-05-01 07:37 -31.80242 149.86816 35371 ft 438 kts 223°
2026-05-01 07:38 -31.82493 149.84428 35246 ft 428 kts 223°
2026-05-01 07:38 -31.84716 149.82060 35293 ft 434 kts 224°
2026-05-01 07:39 -31.91123 149.74515 35294 ft 434 kts 227°
2026-05-01 07:39 -31.93199 149.71954 35544 ft 433 kts 227°
2026-05-01 07:39 -31.97378 149.66801 35499 ft 436 kts 227°
2026-05-01 07:40 -31.99466 149.64238 35308 ft 435 kts 227°
2026-05-01 07:40 -32.01543 149.61699 35290 ft 430 kts 227°
2026-05-01 07:40 -32.05729 149.56599 35288 ft 433 kts 227°
2026-05-01 07:41 -32.09916 149.51503 35293 ft 432 kts 227°
2026-05-01 07:42 -32.16180 149.43877 35296 ft 433 kts 227°
2026-05-01 07:42 -32.20360 149.38780 35297 ft 432 kts 227°
2026-05-01 07:43 -32.24553 149.33662 35296 ft 432 kts 228°
2026-05-01 07:43 -32.30833 149.25981 35300 ft 431 kts 228°
2026-05-01 07:44 -32.39185 149.15741 35304 ft 431 kts 228°
2026-05-01 07:45 -32.43360 149.10612 35304 ft 430 kts 228°
2026-05-01 07:45 -32.47492 149.05527 35301 ft 431 kts 228°
2026-05-01 07:46 -32.51655 149.00397 35296 ft 431 kts 228°
2026-05-01 07:47 -32.57865 148.92731 35296 ft 430 kts 228°
2026-05-01 07:47 -32.62038 148.87569 35299 ft 430 kts 228°
2026-05-01 07:48 -32.68234 148.79894 35301 ft 431 kts 228°
2026-05-01 07:48 -32.72369 148.74760 35299 ft 431 kts 228°
2026-05-01 07:49 -32.78571 148.67050 35299 ft 430 kts 228°
2026-05-01 07:50 -32.82729 148.61870 35305 ft 431 kts 228°
2026-05-01 07:50 -32.88920 148.54147 35300 ft 431 kts 228°
2026-05-01 07:51 -32.93039 148.48999 35298 ft 430 kts 228°
2026-05-01 07:52 -32.99218 148.41260 35292 ft 431 kts 228°
2026-05-01 07:52 -33.03344 148.36084 35290 ft 430 kts 228°
2026-05-01 07:53 -33.09530 148.28308 35296 ft 431 kts 229°
2026-05-01 07:53 -33.13776 148.23230 35293 ft 432 kts 224°
2026-05-01 07:55 -33.25667 148.12091 35292 ft 435 kts 220°
2026-05-01 07:56 -33.37675 148.01083 35290 ft 435 kts 220°
2026-05-01 07:57 -33.44826 147.94453 35282 ft 436 kts 220°
2026-05-01 07:58 -33.54415 147.85532 35276 ft 435 kts 221°
2026-05-01 07:59 -33.64010 147.76576 35277 ft 436 kts 221°
2026-05-01 08:00 -33.78338 147.63156 35278 ft 435 kts 221°
2026-05-01 08:01 -33.87917 147.54150 35278 ft 436 kts 221°
2026-05-01 08:02 -33.95123 147.47359 35276 ft 437 kts 221°
2026-05-01 08:03 -34.02280 147.40599 35270 ft 436 kts 221°
2026-05-01 08:03 -34.09444 147.33818 35268 ft 437 kts 221°
2026-05-01 08:04 -34.19006 147.24742 35066 ft 438 kts 221°
2026-05-01 08:05 -34.23819 147.20165 35266 ft 442 kts 221°
2026-05-01 08:05 -34.26229 147.17868 35265 ft 441 kts 221°
2026-05-01 08:06 -34.33437 147.10996 35265 ft 440 kts 221°
2026-05-01 08:07 -34.43074 147.01781 35257 ft 440 kts 221°
2026-05-01 08:08 -34.50285 146.94869 35256 ft 442 kts 221°
2026-05-01 08:09 -34.59925 146.85600 35251 ft 443 kts 222°
2026-05-01 08:09 -34.64793 146.80911 35250 ft 443 kts 221°
2026-05-01 08:10 -34.74497 146.71541 35243 ft 443 kts 221°
2026-05-01 08:11 -34.84170 146.62170 35238 ft 444 kts 222°
2026-05-01 08:12 -34.91456 146.55095 35238 ft 444 kts 222°
2026-05-01 08:13 -34.98689 146.48053 35237 ft 445 kts 222°
2026-05-01 08:13 -35.05918 146.41000 35240 ft 445 kts 222°
2026-05-01 08:14 -35.10764 146.36261 35234 ft 445 kts 222°
2026-05-01 08:14 -35.15597 146.31529 35242 ft 445 kts 222°
2026-05-01 08:15 -35.22845 146.24417 35248 ft 446 kts 222°
2026-05-01 08:16 -35.27682 146.19663 35249 ft 445 kts 222°
2026-05-01 08:16 -35.32492 146.14926 35248 ft 446 kts 222°
2026-05-01 08:17 -35.37326 146.10159 35250 ft 446 kts 222°
2026-05-01 08:17 -35.42188 146.05356 35244 ft 447 kts 222°
2026-05-01 08:18 -35.47007 146.00589 35246 ft 447 kts 222°
2026-05-01 08:19 -35.56664 145.91013 35242 ft 448 kts 222°
2026-05-01 08:19 -35.61548 145.86157 35243 ft 448 kts 222°
2026-05-01 08:20 -35.66374 145.81352 35243 ft 448 kts 222°
2026-05-01 08:20 -35.71244 145.76494 35233 ft 449 kts 222°
2026-05-01 08:21 -35.76074 145.71669 35236 ft 449 kts 222°
2026-05-01 08:21 -35.80897 145.66847 35036 ft 436 kts 222°
2026-05-01 08:21 -35.83203 145.64545 34871 ft 424 kts 222°
2026-05-01 08:22 -35.85462 145.62286 34718 ft 412 kts 223°
2026-05-01 08:22 -35.87667 145.60077 34546 ft 401 kts 223°
2026-05-01 08:22 -35.89825 145.57910 34205 ft 396 kts 223°
2026-05-01 08:22 -35.91983 145.55737 33715 ft 395 kts 223°
2026-05-01 08:23 -35.94090 145.53612 33204 ft 392 kts 223°
2026-05-01 08:23 -35.96205 145.51479 32644 ft 391 kts 223°
2026-05-01 08:23 -35.98314 145.49350 32138 ft 389 kts 223°
2026-05-01 08:23 -36.00399 145.47246 31649 ft 386 kts 223°
2026-05-01 08:24 -36.02462 145.45165 31092 ft 386 kts 223°
2026-05-01 08:24 -36.04538 145.43066 30600 ft 383 kts 223°
2026-05-01 08:24 -36.06570 145.41014 30071 ft 382 kts 222°
2026-05-01 08:24 -36.08634 145.38928 29530 ft 381 kts 222°
2026-05-01 08:25 -36.10679 145.36859 29037 ft 379 kts 222°
2026-05-01 08:25 -36.12013 145.35509 28696 ft 378 kts 222°
2026-05-01 08:25 -36.14710 145.32779 28080 ft 374 kts 223°
2026-05-01 08:25 -36.16722 145.30739 27573 ft 373 kts 223°
2026-05-01 08:26 -36.18710 145.28723 27145 ft 370 kts 223°
2026-05-01 08:26 -36.20683 145.26720 26656 ft 368 kts 223°
2026-05-01 08:26 -36.22673 145.24699 26174 ft 366 kts 223°
2026-05-01 08:26 -36.24607 145.22733 25718 ft 364 kts 223°
2026-05-01 08:27 -36.26550 145.20756 25258 ft 361 kts 223°
2026-05-01 08:27 -36.28505 145.18767 24773 ft 360 kts 223°
2026-05-01 08:27 -36.30422 145.16814 24311 ft 358 kts 223°
2026-05-01 08:27 -36.32327 145.14873 23837 ft 356 kts 223°
2026-05-01 08:28 -36.34238 145.12926 23392 ft 353 kts 223°
2026-05-01 08:28 -36.36120 145.11006 22925 ft 352 kts 223°
2026-05-01 08:28 -36.37990 145.09097 22495 ft 349 kts 223°
2026-05-01 08:28 -36.39872 145.07175 22034 ft 347 kts 223°
2026-05-01 08:29 -36.41722 145.05284 21611 ft 345 kts 223°
2026-05-01 08:29 -36.43563 145.03401 21147 ft 343 kts 223°
2026-05-01 08:29 -36.45411 145.01509 20740 ft 340 kts 223°
2026-05-01 08:29 -36.47228 144.99651 20280 ft 339 kts 223°
2026-05-01 08:30 -36.49035 144.97797 19852 ft 337 kts 223°
2026-05-01 08:30 -36.50828 144.95956 19434 ft 334 kts 223°
2026-05-01 08:30 -36.52605 144.94128 18998 ft 333 kts 223°
2026-05-01 08:30 -36.54384 144.92299 18562 ft 331 kts 224°
2026-05-01 08:31 -36.56158 144.90477 18125 ft 329 kts 223°
2026-05-01 08:31 -36.57909 144.88675 17706 ft 327 kts 223°
2026-05-01 08:31 -36.59661 144.86873 17266 ft 326 kts 223°
2026-05-01 08:31 -36.61415 144.85068 16833 ft 324 kts 223°
2026-05-01 08:32 -36.63141 144.83292 16393 ft 323 kts 223°
2026-05-01 08:32 -36.64844 144.81538 15976 ft 321 kts 223°
2026-05-01 08:32 -36.66557 144.79773 15549 ft 319 kts 223°
2026-05-01 08:32 -36.68264 144.78012 15110 ft 318 kts 223°
2026-05-01 08:33 -36.69949 144.76273 14688 ft 316 kts 223°
2026-05-01 08:33 -36.71632 144.74535 14252 ft 315 kts 223°
2026-05-01 08:33 -36.73319 144.72790 13796 ft 314 kts 222°
2026-05-01 08:33 -36.74987 144.71063 13384 ft 313 kts 222°
2026-05-01 08:34 -36.76653 144.69342 13219 ft 308 kts 222°
2026-05-01 08:34 -36.78325 144.67645 13212 ft 312 kts 219°
2026-05-01 08:34 -36.80198 144.66238 13214 ft 316 kts 203°
2026-05-01 08:34 -36.82341 144.65671 13219 ft 317 kts 181°
2026-05-01 08:35 -36.84536 144.65939 13228 ft 316 kts 169°
2026-05-01 08:35 -36.86703 144.66438 13178 ft 318 kts 168°
2026-05-01 08:35 -36.88873 144.66946 13087 ft 312 kts 168°
2026-05-01 08:35 -36.91007 144.67435 13184 ft 314 kts 169°
2026-05-01 08:36 -36.93169 144.67921 13222 ft 317 kts 169°
2026-05-01 08:36 -36.95350 144.68404 13227 ft 316 kts 169°
2026-05-01 08:36 -36.97504 144.68880 13230 ft 317 kts 169°
2026-05-01 08:36 -36.99675 144.69357 13230 ft 317 kts 169°
2026-05-01 08:37 -37.01857 144.69840 13232 ft 318 kts 169°
2026-05-01 08:37 -37.04036 144.70322 13233 ft 317 kts 169°
2026-05-01 08:37 -37.06209 144.70804 13190 ft 318 kts 169°
2026-05-01 08:37 -37.08405 144.71291 12928 ft 317 kts 169°
2026-05-01 08:38 -37.10566 144.71770 12569 ft 314 kts 169°
2026-05-01 08:38 -37.12688 144.72241 12212 ft 312 kts 169°
2026-05-01 08:38 -37.14815 144.72713 11881 ft 308 kts 169°
2026-05-01 08:38 -37.16937 144.73186 11567 ft 308 kts 168°
2026-05-01 08:39 -37.19027 144.73698 11255 ft 307 kts 167°
2026-05-01 08:39 -37.21113 144.74255 10939 ft 305 kts 166°
2026-05-01 08:39 -37.23187 144.74823 10622 ft 303 kts 166°
2026-05-01 08:39 -37.25252 144.75386 10307 ft 303 kts 166°
2026-05-01 08:40 -37.29364 144.76491 9517 ft 304 kts 166°
2026-05-01 08:40 -37.31440 144.77043 9086 ft 304 kts 167°
2026-05-01 08:40 -37.33458 144.77573 9021 ft 295 kts 168°
2026-05-01 08:41 -37.35498 144.78003 9019 ft 296 kts 171°
2026-05-01 08:41 -37.37545 144.78351 9016 ft 296 kts 172°
2026-05-01 08:41 -37.39589 144.78679 9018 ft 296 kts 172°
2026-05-01 08:41 -37.41633 144.79016 9015 ft 297 kts 171°
2026-05-01 08:42 -37.43684 144.79366 9014 ft 297 kts 171°
2026-05-01 08:42 -37.45740 144.79620 9009 ft 297 kts 179°
2026-05-01 08:42 -37.47779 144.79314 9007 ft 296 kts 196°
2026-05-01 08:42 -37.49737 144.78439 9006 ft 296 kts 204°
2026-05-01 08:43 -37.51610 144.77431 9002 ft 295 kts 205°
2026-05-01 08:43 -37.53516 144.76410 9002 ft 295 kts 204°
2026-05-01 08:43 -37.55418 144.75447 9000 ft 295 kts 202°
2026-05-01 08:43 -37.57322 144.74522 8991 ft 295 kts 202°
2026-05-01 08:44 -37.59282 144.73758 8926 ft 298 kts 192°
2026-05-01 08:44 -37.61372 144.73396 8377 ft 307 kts 184°
2026-05-01 08:44 -37.63537 144.73276 7771 ft 313 kts 181°
2026-05-01 08:44 -37.65733 144.73209 7151 ft 319 kts 181°
2026-05-01 08:45 -37.67970 144.73119 6539 ft 324 kts 182°
2026-05-01 08:45 -37.70231 144.72994 5935 ft 328 kts 183°
2026-05-01 08:45 -37.72498 144.72893 5377 ft 330 kts 181°
2026-05-01 08:45 -37.74760 144.72855 5154 ft 319 kts 180°
2026-05-01 08:46 -37.76971 144.72844 4787 ft 315 kts 180°
2026-05-01 08:46 -37.79173 144.72908 4418 ft 311 kts 174°
2026-05-01 08:46 -37.81253 144.73469 4049 ft 305 kts 155°
2026-05-01 08:46 -37.82939 144.74985 3687 ft 293 kts 126°
2026-05-01 08:47 -37.83990 144.77094 3340 ft 283 kts 111°
2026-05-01 08:47 -37.84452 144.79372 2953 ft 251 kts 83°
2026-05-01 08:47 -37.84230 144.81429 2593 ft 226 kts 72°
2026-05-01 08:47 -37.83906 144.83249 2459 ft 199 kts 68°
2026-05-01 08:48 -37.83418 144.84729 2471 ft 167 kts 51°
2026-05-01 08:48 -37.82716 144.85715 2484 ft 137 kts 31°
2026-05-01 08:48 -37.81926 144.86202 2424 ft 117 kts 17°
2026-05-01 08:48 -37.81141 144.86412 2288 ft 116 kts
2026-05-01 08:49 -37.80340 144.86317 2091 ft 117 kts 354°
2026-05-01 08:49 -37.79529 144.86139 1907 ft 116 kts 356°
2026-05-01 08:49 -37.78747 144.85997 1954 ft 115 kts 356°
2026-05-01 08:49 -37.77940 144.85846 1939 ft 117 kts 356°
2026-05-01 08:50 -37.77137 144.85666 1818 ft 117 kts 354°
2026-05-01 08:50 -37.76332 144.85501 1663 ft 115 kts 358°
2026-05-01 08:50 -37.75527 144.85378 1451 ft 120 kts 355°
2026-05-01 08:50 -37.74693 144.85237 1291 ft 119 kts 356°
2026-05-01 08:51 -37.73872 144.85068 1183 ft 118 kts 354°
2026-05-01 08:51 -37.73040 144.84894 1089 ft 123 kts 355°
2026-05-01 08:51 -37.72204 144.84749 1008 ft 119 kts 355°
2026-05-01 08:51 -37.71359 144.84593 785 ft 125 kts 354°
2026-05-01 08:52 -37.70502 144.84445 654 ft 125 kts 356°
2026-05-01 08:52 -37.69636 144.84296 570 ft 123 kts 354°
2026-05-01 08:52 -37.68774 144.84152 428 ft 128 kts 354°
2026-05-01 08:52 -37.67904 144.83966 414 ft 121 kts 353°
2026-05-01 08:53 -37.67036 144.83771 665 ft 138 kts 353°
2026-05-01 08:53 -37.66074 144.83594 1556 ft 149 kts 355°
2026-05-01 08:53 -37.64901 144.83397 2075 ft 202 kts 355°
2026-05-01 08:53 -37.63380 144.83150 2915 ft 231 kts 354°
2026-05-01 08:54 -37.61844 144.82863 4369 ft 225 kts 353°
2026-05-01 08:54 -37.60336 144.82577 5054 ft 226 kts 352°
2026-05-01 08:54 -37.58813 144.82274 5010 ft 216 kts 352°
2026-05-01 08:54 -37.57374 144.81863 5000 ft 206 kts 338°
2026-05-01 08:55 -37.56272 144.80696 5010 ft 215 kts 306°
2026-05-01 08:55 -37.55850 144.78876 5006 ft 227 kts 274°
2026-05-01 08:55 -37.56292 144.76930 5004 ft 239 kts 241°
2026-05-01 08:55 -37.57493 144.75493 5001 ft 247 kts 211°
2026-05-01 08:56 -37.59083 144.74620 5001 ft 250 kts 202°
2026-05-01 08:56 -37.60712 144.73865 4999 ft 249 kts 201°
2026-05-01 08:56 -37.62347 144.73114 4997 ft 248 kts 201°
2026-05-01 08:56 -37.63975 144.72368 5002 ft 249 kts 201°
2026-05-01 08:57 -37.65616 144.71634 4992 ft 250 kts 197°
2026-05-01 08:57 -37.67334 144.71423 4997 ft 250 kts 175°
2026-05-01 08:57 -37.69071 144.71648 4995 ft 250 kts 172°
2026-05-01 08:57 -37.70804 144.71922 4991 ft 248 kts 172°
2026-05-01 08:58 -37.72519 144.72197 4993 ft 248 kts 172°
2026-05-01 08:58 -37.74222 144.72470 4992 ft 248 kts 172°
2026-05-01 08:58 -37.75938 144.72745 4839 ft 249 kts 172°
2026-05-01 08:58 -37.77662 144.73021 4593 ft 248 kts 171°
2026-05-01 08:59 -37.79373 144.73290 4350 ft 247 kts 172°
2026-05-01 08:59 -37.81032 144.73692 4101 ft 243 kts 155°
2026-05-01 08:59 -37.82383 144.74904 3857 ft 232 kts 122°
2026-05-01 08:59 -37.83224 144.76596 3632 ft 226 kts 112°
2026-05-01 09:00 -37.83963 144.78345 3384 ft 225 kts 111°
2026-05-01 09:00 -37.84698 144.80087 3140 ft 225 kts 112°
2026-05-01 09:00 -37.85432 144.81816 2979 ft 220 kts 112°
2026-05-01 09:00 -37.86142 144.83476 2977 ft 208 kts 111°
2026-05-01 09:01 -37.86637 144.85091 2976 ft 185 kts 86°
2026-05-01 09:01 -37.86385 144.86497 2990 ft 153 kts 47°
2026-05-01 09:01 -37.85606 144.87203 2984 ft 129 kts 21°
2026-05-01 09:01 -37.84822 144.87567 2998 ft 113 kts 359°
2026-05-01 09:02 -37.84041 144.87267 2932 ft 115 kts 348°
2026-05-01 09:02 -37.83286 144.87013 2925 ft 109 kts 350°
2026-05-01 09:02 -37.82525 144.86787 2864 ft 113 kts 351°
2026-05-01 09:02 -37.81776 144.86580 2966 ft 112 kts 352°
2026-05-01 09:03 -37.80975 144.86406 2879 ft 126 kts 354°
2026-05-01 09:03 -37.80030 144.86221 2951 ft 149 kts 353°
2026-05-01 09:03 -37.78944 144.86018 2918 ft 162 kts 354°
2026-05-01 09:03 -37.77785 144.85805 2773 ft 168 kts 354°
2026-05-01 09:04 -37.76634 144.85611 2517 ft 169 kts 355°
2026-05-01 09:04 -37.75444 144.85410 2159 ft 174 kts 355°
2026-05-01 09:04 -37.74274 144.85197 1789 ft 168 kts 355°
2026-05-01 09:04 -37.73132 144.84978 1422 ft 167 kts 354°
2026-05-01 09:05 -37.71982 144.84760 1052 ft 164 kts 354°
2026-05-01 09:05 -37.70885 144.84558 818 ft 152 kts 355°
2026-05-01 09:05 -37.69897 144.84378 646 ft 136 kts 354°
2026-05-01 09:05 -37.68984 144.84212 462 ft 131 kts 354°
2026-05-01 09:06 -37.68107 144.83993 368 ft 122 kts 351°
2026-05-01 09:06 -37.67359 144.83861 374 ft 96 kts 355°
2026-05-01 09:06 -37.66524 144.83754 712 ft 139 kts 356°
2026-05-01 09:06 -37.65599 144.83550 1630 ft 141 kts 353°
2026-05-01 09:07 -37.64623 144.83285 2259 ft 177 kts 351°
2026-05-01 09:07 -37.63167 144.82782 2276 ft 258 kts 344°
2026-05-01 09:07 -37.61369 144.81753 3142 ft 303 kts 333°
2026-05-01 09:07 -37.59633 144.80022 3500 ft 328 kts 315°
2026-05-01 09:08 -37.58484 144.77629 3505 ft 315 kts 294°
2026-05-01 09:08 -37.58181 144.74977 3499 ft 304 kts 270°
2026-05-01 09:08 -37.58719 144.72488 3327 ft 288 kts 246°
2026-05-01 09:08 -37.59965 144.70625 2993 ft 272 kts 217°
2026-05-01 09:09 -37.61578 144.69603 2982 ft 246 kts 202°
2026-05-01 09:09 -37.63147 144.68857 2991 ft 238 kts 201°
2026-05-01 09:09 -37.64695 144.68123 2993 ft 237 kts 201°
2026-05-01 09:09 -37.66224 144.67390 2992 ft 237 kts 201°
2026-05-01 09:10 -37.67782 144.66640 2990 ft 239 kts 201°
2026-05-01 09:10 -37.69324 144.65898 2987 ft 236 kts 201°
2026-05-01 09:10 -37.70861 144.65164 2986 ft 235 kts 201°
2026-05-01 09:10 -37.72389 144.64433 2985 ft 235 kts 202°
2026-05-01 09:11 -37.73936 144.63696 2983 ft 236 kts 201°
2026-05-01 09:11 -37.75465 144.62973 2982 ft 237 kts 201°
2026-05-01 09:11 -37.77036 144.62233 3004 ft 245 kts 201°
2026-05-01 09:11 -37.78675 144.61459 3877 ft 258 kts 202°
2026-05-01 09:12 -37.80143 144.60817 4925 ft 256 kts 196°
2026-05-01 09:12 -37.80847 144.60635 5022 ft 264 kts 186°
2026-05-01 09:12 -37.82602 144.60870 4983 ft 245 kts 154°
2026-05-01 09:12 -37.83944 144.62097 4985 ft 236 kts 122°
2026-05-01 09:13 -37.84665 144.63893 4987 ft 223 kts 103°
2026-05-01 09:13 -37.85149 144.65741 4981 ft 224 kts 102°
2026-05-01 09:13 -37.85625 144.67615 4977 ft 223 kts 102°
2026-05-01 09:13 -37.86097 144.69461 4834 ft 220 kts 102°
2026-05-01 09:14 -37.86571 144.71315 4578 ft 220 kts 102°
2026-05-01 09:14 -37.87037 144.73146 4330 ft 220 kts 102°
2026-05-01 09:14 -37.87504 144.74979 4090 ft 220 kts 101°
2026-05-01 09:14 -37.87981 144.76827 3871 ft 218 kts 102°
2026-05-01 09:15 -37.88448 144.78644 3625 ft 217 kts 97°
2026-05-01 09:15 -37.88479 144.80466 3361 ft 203 kts 65°
2026-05-01 09:15 -37.87739 144.81894 3117 ft 191 kts 36°
2026-05-01 09:15 -37.86692 144.82889 2976 ft 186 kts 32°
2026-05-01 09:16 -37.85631 144.83818 2980 ft 190 kts 32°
2026-05-01 09:16 -37.84536 144.84772 2980 ft 189 kts 32°
2026-05-01 09:16 -37.83447 144.85712 2983 ft 188 kts 29°
2026-05-01 09:17 -37.81111 144.86345 2947 ft 158 kts
2026-05-01 09:17 -37.80012 144.86410 2798 ft 158 kts
2026-05-01 09:17 -37.77925 144.85912 2205 ft 148 kts 347°
2026-05-01 09:18 -37.76953 144.85646 2004 ft 137 kts 356°
2026-05-01 09:18 -37.75213 144.85384 1634 ft 109 kts 356°
2026-05-01 09:19 -37.73631 144.85042 1176 ft 117 kts 355°
2026-05-01 09:19 -37.72803 144.84900 1046 ft 119 kts 356°
2026-05-01 09:19 -37.71991 144.84763 971 ft 120 kts 356°
2026-05-01 09:20 -37.70289 144.84464 771 ft 125 kts 355°
2026-05-01 09:20 -37.68507 144.84097 427 ft 133 kts 354°
2026-05-01 09:21 -37.66874 144.83749 1259 ft 117 kts 357°
2026-05-01 09:21 -37.66160 144.83659 2253 ft 110 kts
2026-05-01 09:21 -37.64677 144.84168 3191 ft 131 kts 23°
2026-05-01 09:22 -37.62761 144.84752 3055 ft 158 kts 344°
2026-05-01 09:22 -37.60556 144.84793 3100 ft 188 kts 35°
2026-05-01 09:23 -37.59784 144.86185 3106 ft 206 kts 68°
2026-05-01 09:23 -37.59557 144.89861 3096 ft 213 kts 82°
2026-05-01 09:24 -37.59479 144.93584 3101 ft 211 kts 82°
2026-05-01 09:24 -37.59393 144.95399 3103 ft 209 kts 78°
2026-05-01 09:24 -37.59000 144.99039 3100 ft 209 kts 76°
2026-05-01 09:25 -37.58586 145.02670 3100 ft 209 kts 76°
2026-05-01 09:25 -37.58173 145.06300 3101 ft 210 kts 76°
2026-05-01 09:26 -37.57970 145.08130 3099 ft 211 kts 76°
2026-05-01 09:26 -37.57577 145.11772 3102 ft 210 kts 76°
2026-05-01 09:26 -37.57616 145.13626 3101 ft 220 kts 100°
2026-05-01 09:27 -37.59881 145.16289 3116 ft 242 kts 164°
2026-05-01 09:27 -37.61554 145.16612 3117 ft 244 kts 172°
2026-05-01 09:27 -37.63250 145.16836 3108 ft 243 kts 172°
2026-05-01 09:28 -37.64929 145.17058 3105 ft 243 kts 172°
2026-05-01 09:28 -37.66621 145.17279 3101 ft 243 kts 172°
2026-05-01 09:28 -37.68294 145.17500 3105 ft 242 kts 172°
2026-05-01 09:28 -37.69965 145.17723 3110 ft 243 kts 172°
2026-05-01 09:29 -37.73351 145.18178 3099 ft 245 kts 172°
2026-05-01 09:29 -37.75059 145.18407 3104 ft 247 kts 172°
2026-05-01 09:30 -37.78459 145.18863 3101 ft 245 kts 172°
2026-05-01 09:30 -37.80151 145.19093 3099 ft 244 kts 172°
2026-05-01 09:30 -37.83505 145.19550 3096 ft 243 kts 172°
2026-05-01 09:31 -37.85204 145.19772 3097 ft 244 kts 172°
2026-05-01 09:31 -37.86878 145.19983 3097 ft 241 kts 175°
2026-05-01 09:31 -37.89720 145.18210 3004 ft 233 kts 246°
2026-05-01 09:32 -37.90216 145.16295 2988 ft 226 kts 270°
2026-05-01 09:32 -37.89766 145.12532 2984 ft 216 kts 294°
2026-05-01 09:32 -37.89307 145.10713 2982 ft 216 kts 294°
2026-05-01 09:33 -37.88862 145.08908 2984 ft 216 kts 293°
2026-05-01 09:33 -37.88591 145.07047 2973 ft 222 kts 275°
2026-05-01 09:33 -37.88903 145.03095 2936 ft 222 kts 269°
2026-05-01 09:34 -37.89104 145.01189 2788 ft 218 kts 269°
2026-05-01 09:34 -37.89149 144.99292 2533 ft 208 kts 292°
2026-05-01 09:34 -37.87345 144.96858 2477 ft 192 kts 329°
2026-05-01 09:35 -37.86316 144.95775 2482 ft 196 kts 319°
2026-05-01 09:35 -37.84892 144.92741 2490 ft 207 kts 297°
2026-05-01 09:35 -37.84425 144.91011 2486 ft 208 kts 294°
2026-05-01 09:36 -37.83984 144.89244 2490 ft 209 kts 295°
2026-05-01 09:36 -37.83394 144.87616 2481 ft 200 kts 314°
2026-05-01 09:36 -37.82371 144.86662 2478 ft 170 kts 348°
2026-05-01 09:36 -37.81302 144.86461 2436 ft 145 kts 358°
2026-05-01 09:37 -37.80341 144.86305 2266 ft 128 kts 355°
2026-05-01 09:37 -37.78724 144.85991 1842 ft 112 kts 357°
2026-05-01 09:37 -37.77959 144.85849 1696 ft 111 kts 356°
2026-05-01 09:38 -37.76394 144.85558 1454 ft 115 kts 356°
2026-05-01 09:38 -37.75588 144.85402 1328 ft 117 kts 356°
2026-05-01 09:38 -37.74782 144.85252 1206 ft 118 kts 356°
2026-05-01 09:39 -37.73130 144.84927 982 ft 121 kts 355°
2026-05-01 09:39 -37.72289 144.84779 859 ft 123 kts 358°
2026-05-01 09:39 -37.71450 144.84671 791 ft 121 kts 355°
2026-05-01 09:40 -37.70605 144.84486 665 ft 124 kts 354°
2026-05-01 09:40 -37.68877 144.84180 454 ft 127 kts 354°
2026-05-01 09:40 -37.68025 144.83992 375 ft 118 kts 352°
2026-05-01 09:41 -37.67368 144.83881 375 ft 55 kts 351°
2026-05-01 09:41 -37.67229 144.83852 379 ft 3 kts 351°
2026-05-01 09:41 -37.67144 144.83838 382 ft 17 kts 353°
2026-05-01 09:42 -37.67032 144.83839 386 ft 14 kts
2026-05-01 09:42 -37.66940 144.83864 390 ft 11 kts 19°
2026-05-01 09:42 -37.66932 144.83867 390 ft 0 kts 19°
2026-05-01 09:43 -37.66931 144.83868 390 ft 0 kts 19°
2026-05-01 09:44 -37.66858 144.83902 392 ft 0 kts 20°
2026-05-01 09:45 -37.66850 144.83905 392 ft 4 kts 20°
2026-05-01 09:46 -37.66817 144.83922 393 ft 6 kts 21°
2026-05-01 09:46 -37.66759 144.83958 394 ft 9 kts 41°
2026-05-01 09:46 -37.66722 144.84027 395 ft 8 kts 71°
2026-05-01 09:46 -37.66710 144.84113 394 ft 13 kts 81°
2026-05-01 09:47 -37.66694 144.84245 394 ft 15 kts 81°
2026-05-01 09:47 -37.66681 144.84360 394 ft 7 kts 81°
2026-05-01 09:47 -37.66681 144.84415 395 ft 5 kts 113°
2026-05-01 09:47 -37.66711 144.84439 395 ft 5 kts 163°
2026-05-01 09:48 -37.66760 144.84451 394 ft 10 kts 172°
2026-05-01 09:48 -37.66780 144.84456 394 ft 0 kts 171°